Indianapolis, IN

9:57 AM EDT on July 20, 2019 (GMT -0400)
Indianapolis Terry

Weather History for KTYQ - May, 2019

Change the Weather History Date:

Wednesday, May 1, 2019

  Actual Average (KEYE) Record (KEYE)
Temperature  
Mean Temperature 60 °F -  
Max Temperature 68 °F 67 °F 82 °F (2007)
Min Temperature 51 °F 47 °F 39 °F (2005)
Degree Days  
Heating Degree Days 6    
Growing Degree Days 10 (Base 50)    
Moisture  
Dew Point 59 °F    
Average Humidity 89    
Maximum Humidity 100    
Minimum Humidity 73    
Precipitation  
Precipitation 0.08 in - - ()
Sea Level Pressure  
Sea Level Pressure 30.00 in    
Wind  
Wind Speed 10 mph (SSW)    
Max Wind Speed 24 mph    
Max Gust Speed 36 mph    
Visibility 9 miles    
Events Fog , Rain    
Averages and records for this station are not official NWS values.
T = Trace of Precipitation, MM = Missing Value Source: NWS Daily Summary

Daily Weather History Graph

Daily Weather History Graph

Search for Another Location

Airport or City:

Astronomy

May. 01, 2019 Rise Set
Actual Time 6:45 AM EDT 8:39 PM EDT
Civil Twilight 6:15 AM EDT 9:09 PM EDT
Nautical Twilight 5:40 AM EDT 9:44 PM EDT
Astronomical Twilight 5:01 AM EDT 10:23 PM EDT
Moon 5:30 AM EDT (5/1) 5:27 PM EDT (5/1)
Length of Visible Light 14h 53m
Length of Day
13h 54m
Waning Crescent, 11% of the Moon is Illuminated
May 1
Waning Crescent
May 4
New
May 11
First Quarter
May 18
Full
May 26
Last Quarter

Hourly Weather History & Observations

Time (EDT) Temp. Dew Point Humidity Pressure Visibility Wind Dir Wind Speed Gust Speed Precip Events Conditions
12:15 AM 52.0 °F 52.0 °F 100% 30.02 in 7.0 mi East 6.9 mph - N/A   Clear
12:35 AM 51.8 °F 51.8 °F 100% 30.00 in 7.0 mi East 8.1 mph - N/A   Clear
12:55 AM 51.8 °F 51.8 °F 100% 30.00 in 7.0 mi East 5.8 mph - N/A   Clear
1:15 AM 51.8 °F 51.8 °F 100% 30.00 in 7.0 mi East 5.8 mph - N/A   Clear
1:35 AM 51.8 °F 51.8 °F 100% 29.99 in 7.0 mi ESE 3.5 mph - N/A   Clear
1:55 AM 52.0 °F 52.0 °F 100% 29.99 in 7.0 mi ESE 5.8 mph - N/A   Clear
2:15 AM 52.7 °F 52.7 °F 100% 29.98 in 7.0 mi ESE 4.6 mph - N/A   Clear
2:35 AM 52.7 °F 52.7 °F 100% 29.98 in 7.0 mi ESE 5.8 mph - N/A   Clear
2:55 AM 54.0 °F 54.0 °F 100% 29.96 in 10.0 mi SE 5.8 mph - N/A   Clear
3:15 AM 54.5 °F 54.5 °F 100% 29.96 in 10.0 mi SE 4.6 mph - N/A   Clear
3:35 AM 56.1 °F 55.9 °F 99% 29.94 in 10.0 mi SE 8.1 mph - N/A   Clear
3:55 AM 57.4 °F 56.3 °F 96% 29.94 in 10.0 mi SSE 8.1 mph - N/A   Clear
4:15 AM 59.2 °F 55.8 °F 88% 29.93 in 10.0 mi SSE 9.2 mph - N/A   Clear
4:35 AM 61.0 °F 55.6 °F 82% 29.92 in 10.0 mi SSE 10.4 mph - N/A   Clear
4:55 AM 63.0 °F 55.4 °F 76% 29.91 in 10.0 mi South 12.7 mph 18.4 mph N/A   Clear
5:15 AM 63.5 °F 55.4 °F 75% 29.91 in 10.0 mi South 13.8 mph 17.3 mph N/A   Clear
5:35 AM 64.6 °F 55.8 °F 73% 29.90 in 10.0 mi South 15.0 mph 21.9 mph N/A   Clear
5:55 AM 65.1 °F 56.7 °F 74% 29.90 in 10.0 mi South 13.8 mph 20.7 mph N/A   Clear
6:15 AM 65.5 °F 57.6 °F 76% 29.90 in 10.0 mi South 16.1 mph 20.7 mph N/A   Clear
6:35 AM 65.5 °F 58.1 °F 77% 29.91 in 10.0 mi South 16.1 mph 23.0 mph N/A   Clear
6:55 AM 66.0 °F 58.6 °F 77% 29.91 in 10.0 mi South 15.0 mph 23.0 mph N/A   Clear
7:15 AM 66.6 °F 59.4 °F 78% 29.92 in 10.0 mi SSW 16.1 mph 23.0 mph N/A   Scattered Clouds
7:35 AM 68.0 °F 60.1 °F 76% 29.93 in 10.0 mi SSW 19.6 mph 29.9 mph N/A   Scattered Clouds
7:55 AM 68.0 °F 60.3 °F 76% 29.94 in 10.0 mi SW 24.2 mph 35.7 mph N/A   Mostly Cloudy
8:15 AM 68.0 °F 60.1 °F 76% 29.95 in 10.0 mi SSW 24.2 mph 29.9 mph N/A   Overcast
8:35 AM 67.5 °F 59.9 °F 77% 29.96 in 10.0 mi SSW 18.4 mph 25.3 mph N/A   Overcast
8:55 AM 67.1 °F 59.9 °F 78% 29.97 in 10.0 mi SW 19.6 mph 27.6 mph N/A   Overcast
9:15 AM 66.7 °F 59.7 °F 78% 29.97 in 10.0 mi SW 16.1 mph 21.9 mph N/A   Overcast
9:35 AM 65.8 °F 59.4 °F 80% 29.98 in 10.0 mi WSW 16.1 mph 23.0 mph N/A   Overcast
9:55 AM 65.8 °F 59.9 °F 81% 29.98 in 10.0 mi SW 16.1 mph 20.7 mph N/A   Overcast
10:15 AM 65.5 °F 59.9 °F 82% 29.97 in 10.0 mi SW 12.7 mph - N/A   Mostly Cloudy
10:35 AM 66.2 °F 60.1 °F 81% 29.96 in 10.0 mi SW 16.1 mph 20.7 mph N/A   Scattered Clouds
10:55 AM 66.0 °F 60.4 °F 82% 29.96 in 10.0 mi SW 10.4 mph - N/A Rain Light Rain
11:15 AM 67.8 °F 61.5 °F 80% 29.96 in 10.0 mi SW 9.2 mph - N/A   Scattered Clouds
11:35 AM 67.3 °F 62.2 °F 84% 29.97 in 10.0 mi SW 12.7 mph - N/A   Overcast
11:55 AM 66.9 °F 62.6 °F 86% 29.98 in 10.0 mi WSW 12.7 mph 17.3 mph N/A   Overcast
12:15 PM 64.0 °F 60.8 °F 89% 30.00 in 10.0 mi West 16.1 mph 21.9 mph N/A   Overcast
12:35 PM 62.6 °F 60.3 °F 92% 30.02 in 10.0 mi West 16.1 mph 25.3 mph N/A   Light Drizzle
12:55 PM 61.7 °F 60.8 °F 97% 30.03 in 10.0 mi West 13.8 mph 20.7 mph N/A   Drizzle
1:15 PM 61.5 °F 61.5 °F 100% 30.03 in 7.0 mi West 8.1 mph - N/A Rain Light Rain
1:35 PM 63.5 °F 62.1 °F 95% 30.03 in 10.0 mi WSW 13.8 mph 20.7 mph N/A   Mostly Cloudy
1:55 PM 64.4 °F 62.2 °F 93% 30.03 in 10.0 mi West 13.8 mph 20.7 mph N/A   Mostly Cloudy
2:15 PM 65.8 °F 62.6 °F 89% 30.04 in 10.0 mi West 11.5 mph 16.1 mph N/A   Scattered Clouds
2:35 PM 68.2 °F 63.0 °F 83% 30.05 in 10.0 mi West 15.0 mph 20.7 mph N/A   Scattered Clouds
2:55 PM 68.0 °F 61.9 °F 81% 30.05 in 10.0 mi WSW 12.7 mph - N/A   Scattered Clouds
3:15 PM 68.4 °F 60.6 °F 76% 30.05 in 10.0 mi WSW 15.0 mph 23.0 mph N/A   Clear
3:35 PM 68.9 °F 61.0 °F 76% 30.05 in 10.0 mi WSW 13.8 mph - N/A   Mostly Cloudy
3:55 PM 68.5 °F 60.8 °F 76% 30.05 in 10.0 mi WSW 10.4 mph 17.3 mph N/A   Overcast
4:15 PM 68.9 °F 60.6 °F 75% 30.05 in 10.0 mi WSW 12.7 mph 17.3 mph N/A   Overcast
4:35 PM 68.2 °F 60.4 °F 76% 30.04 in 10.0 mi WSW 16.1 mph 20.7 mph N/A   Mostly Cloudy
4:55 PM 67.8 °F 61.0 °F 79% 30.04 in 10.0 mi WSW 11.5 mph - N/A   Overcast
5:15 PM 67.3 °F 60.4 °F 79% 30.04 in 10.0 mi WSW 6.9 mph - N/A   Overcast
5:35 PM 67.1 °F 60.8 °F 80% 30.05 in 10.0 mi West 8.1 mph - N/A   Overcast
5:55 PM 66.9 °F 61.2 °F 82% 30.05 in 10.0 mi WSW 11.5 mph - N/A   Scattered Clouds
6:15 PM 65.7 °F 60.3 °F 83% 30.06 in 10.0 mi WSW 12.7 mph - N/A   Mostly Cloudy
6:35 PM 64.2 °F 61.0 °F 89% 30.06 in 10.0 mi SW 11.5 mph - N/A Rain Rain
6:55 PM 63.1 °F 61.9 °F 96% 30.06 in 7.0 mi SW 9.2 mph - N/A Rain Rain
7:15 PM 61.9 °F 61.9 °F 100% 30.07 in 7.0 mi SW 8.1 mph - 0.03 in Rain Rain
7:35 PM 61.3 °F 61.3 °F 100% 30.06 in 5.0 mi SW 5.8 mph - 0.07 in Rain Rain
7:55 PM 60.8 °F 60.8 °F 100% 30.06 in 10.0 mi SSW 6.9 mph - 0.08 in Rain Rain
8:15 PM 60.8 °F 60.8 °F 100% 30.05 in 10.0 mi SSE 10.4 mph - N/A   Mostly Cloudy
8:35 PM 60.3 °F 60.3 °F 100% 30.06 in 10.0 mi South 9.2 mph - N/A   Scattered Clouds
8:55 PM 59.9 °F 59.9 °F 100% 30.07 in 10.0 mi SSW 5.8 mph - N/A   Scattered Clouds
9:15 PM 59.9 °F 59.9 °F 100% 30.07 in 10.0 mi South 6.9 mph - N/A   Scattered Clouds
9:35 PM 59.2 °F 59.2 °F 100% 30.07 in 10.0 mi South 8.1 mph - N/A   Mostly Cloudy
9:55 PM 58.8 °F 58.8 °F 100% 30.08 in 10.0 mi SW 3.5 mph - N/A   Overcast
10:15 PM 57.9 °F 57.9 °F 100% 30.08 in 10.0 mi Calm Calm - N/A   Scattered Clouds
10:35 PM 57.2 °F 57.2 °F 100% 30.09 in 10.0 mi Calm Calm - N/A   Clear
10:55 PM 57.4 °F 57.4 °F 100% 30.09 in 10.0 mi Calm Calm - N/A   Clear
11:15 PM 56.7 °F 56.7 °F 100% 30.09 in 5.0 mi Calm Calm - N/A   Clear
11:35 PM 54.5 °F 54.5 °F 100% 30.09 in 0.5 mi Calm Calm - N/A Fog Fog
11:55 PM 52.7 °F 52.7 °F 100% 30.10 in 0.5 mi Calm Calm - N/A Fog Fog